Weather History for McGuire AFB, NJ

Change the Weather History Date:

Saturday, January 11, 2014

  Actual Average Record
Temperature  
Mean Temperature 50 °F -  
Max Temperature 62 °F 38 °F 62 °F (2008)
Min Temperature 39 °F 22 °F 5 °F (2004)
Degree Days  
Heating Degree Days 14    
Moisture  
Dew Point 55 °F    
Average Humidity 100    
Maximum Humidity 100    
Minimum Humidity 93    
Precipitation  
Precipitation 0.75 in - - ()
Sea Level Pressure  
Sea Level Pressure 29.70 in    
Wind  
Wind Speed 9 mph (South)    
Max Wind Speed 21 mph    
Max Gust Speed 33 mph    
Visibility 8 miles    
Events Fog , Rain , Thunderstorm    
Averages and records for this station are not official NWS values.
T = Trace of Precipitation, MM = Missing Value Source: NWS Daily Summary

Daily Weather History Graph

Daily Weather History Graph

Search for Another Location

Airport:

Trip Planner

Search our weather history database for the weather conditions in past years. The results will help you decide how hot, cold, wet, or windy it might be!

Date:

Astronomy

Jan. 11, 2014 Rise Set
Actual Time 7:19 AM EST 4:53 PM EST
Civil Twilight 6:49 AM EST 5:23 PM EST
Nautical Twilight 6:16 AM EST 5:56 PM EST
Astronomical Twilight 5:43 AM EST 6:29 PM EST
Moon 1:35 PM EST (1/11) 3:22 AM EST (1/11)
Length of Visible Light 10h 33m
Length of Day
9h 33m
Waxing Gibbous, 83% of the Moon is Illuminated
Jan 11
Waxing Gibbous
Jan 15
Full
Jan 24
Last Quarter
Jan 30
New
Feb 6
First Quarter

Hourly Weather History & Observations

Time (EST) Temp. Windchill Dew Point Humidity Pressure Visibility Wind Dir Wind Speed Gust Speed Precip Events Conditions
12:37 AM 39.2 °F - 39.2 °F 100% 30.14 in 0.8 mi NNE 2.3 mph - N/A   Mist
12:40 AM 39.2 °F - 39.2 °F 100% 30.14 in 0.5 mi NNE 1.2 mph - N/A Fog Fog
12:46 AM 39.2 °F - 39.2 °F 100% 30.13 in 0.5 mi NNE 1.2 mph - N/A Fog Fog
12:49 AM 39.2 °F - 39.2 °F 100% 30.13 in 0.5 mi NE 1.2 mph - N/A Fog , Rain Light Rain
12:52 AM 39.2 °F - 39.2 °F 100% 30.13 in 0.5 mi ENE 2.3 mph - N/A Fog , Rain Light Rain
12:55 AM 39.2 °F 37.0 °F 39.2 °F 100% 30.12 in 0.5 mi East 3.5 mph - N/A Fog , Rain Light Rain
12:58 AM 39.2 °F 37.0 °F 39.2 °F 100% 30.14 in 0.5 mi East 3.5 mph - 0.00 in Fog , Rain Light Rain
1:01 AM 39.2 °F 35.9 °F 39.2 °F 100% 30.12 in 0.8 mi ESE 4.6 mph - N/A Rain Light Rain
1:04 AM 39.2 °F 35.9 °F 39.2 °F 100% 30.12 in 0.8 mi ESE 4.6 mph - N/A Rain Light Rain
1:07 AM 39.2 °F 35.9 °F 39.2 °F 100% 30.11 in 0.8 mi ESE 4.6 mph - N/A Rain Light Rain
1:13 AM 39.2 °F 35.9 °F 39.2 °F 100% 30.11 in 1.0 mi ESE 4.6 mph - N/A Rain Light Rain
1:16 AM 41.0 °F 39.0 °F 39.2 °F 93% 30.11 in 1.0 mi SE 3.5 mph - N/A   Overcast
1:31 AM 41.0 °F 39.0 °F 41.0 °F 100% 30.10 in 1.2 mi SE 3.5 mph - N/A   Overcast
1:34 AM 41.0 °F 39.0 °F 41.0 °F 100% 30.10 in 1.5 mi SE 3.5 mph - N/A   Overcast
1:37 AM 41.0 °F 39.0 °F 41.0 °F 100% 30.10 in 1.8 mi ESE 3.5 mph - N/A   Overcast
1:43 AM 41.0 °F 38.0 °F 41.0 °F 100% 30.10 in 2.0 mi ESE 4.6 mph - N/A   Overcast
1:52 AM 42.8 °F 40.1 °F 42.8 °F 100% 30.09 in 4.0 mi SE 4.6 mph - N/A   Overcast
1:55 AM 42.8 °F 40.1 °F 42.8 °F 100% 30.09 in 5.0 mi SE 4.6 mph - N/A   Overcast
1:58 AM 42.6 °F 39.9 °F 42.3 °F 99% 30.11 in 5.0 mi ESE 4.6 mph - 0.01 in   Overcast
2:13 AM 44.6 °F 42.2 °F 44.6 °F 100% 30.08 in 7.0 mi SE 4.6 mph - N/A   Overcast
2:16 AM 46.4 °F 44.3 °F 44.6 °F 93% 30.08 in 7.0 mi SE 4.6 mph - N/A   Overcast
2:22 AM 46.4 °F 43.5 °F 46.4 °F 100% 30.08 in 6.0 mi SE 5.8 mph - N/A   Overcast
2:34 AM 46.4 °F 42.9 °F 46.4 °F 100% 30.07 in 7.0 mi SE 6.9 mph - N/A   Overcast
2:40 AM 46.4 °F 42.4 °F 46.4 °F 100% 30.07 in 10.0 mi SE 8.1 mph - N/A   Overcast
2:58 AM 47.8 °F - 47.7 °F 99% 30.06 in 10.0 mi SE 9.2 mph - N/A   Mostly Cloudy
3:25 AM 48.2 °F - 48.2 °F 100% 30.03 in 10.0 mi SE 9.2 mph - N/A   Overcast
3:58 AM 50.2 °F - 50.0 °F 99% 30.02 in 10.0 mi SE 10.4 mph - N/A   Overcast
4:25 AM 50.0 °F - 50.0 °F 100% 29.99 in 10.0 mi SSE 6.9 mph - N/A Rain Light Rain
4:28 AM 50.0 °F - 50.0 °F 100% 29.98 in 10.0 mi SE 8.1 mph - N/A Rain Light Rain
4:31 AM 50.0 °F - 50.0 °F 100% 29.98 in 10.0 mi SE 10.4 mph - N/A Rain Light Rain
4:37 AM 51.8 °F - 51.8 °F 100% 29.97 in 10.0 mi SSE 9.2 mph - N/A Rain Light Rain
4:39 AM 51.8 °F - 51.8 °F 100% 29.97 in 10.0 mi SSE 12.7 mph - N/A   Mostly Cloudy
4:45 AM 51.8 °F - 51.8 °F 100% 29.97 in 10.0 mi SSE 12.7 mph - N/A   Mostly Cloudy
4:54 AM 53.6 °F - 53.6 °F 100% 29.96 in 10.0 mi SSE 13.8 mph - N/A   Mostly Cloudy
4:58 AM 53.2 °F - 52.9 °F 99% 29.97 in 10.0 mi SSE 13.8 mph 20.7 mph 0.00 in   Mostly Cloudy
5:04 AM 53.6 °F - 53.6 °F 100% 29.96 in 10.0 mi SSE 12.7 mph 20.7 mph N/A   Mostly Cloudy
5:07 AM 53.6 °F - 53.6 °F 100% 29.96 in 10.0 mi SSE 15.0 mph - N/A   Mostly Cloudy
5:16 AM 55.4 °F - 53.6 °F 94% 29.96 in 10.0 mi SSE 15.0 mph 23.0 mph N/A   Mostly Cloudy
5:19 AM 55.4 °F - 53.6 °F 94% 29.95 in 10.0 mi SSE 15.0 mph 23.0 mph N/A   Overcast
5:28 AM 55.4 °F - 55.4 °F 100% 29.95 in 10.0 mi SSE 15.0 mph 21.9 mph N/A   Mostly Cloudy
5:40 AM 55.4 °F - 55.4 °F 100% 29.94 in 10.0 mi SSE 17.3 mph 23.0 mph N/A   Overcast
5:43 AM 55.4 °F - 55.4 °F 100% 29.94 in 10.0 mi SSE 17.3 mph 24.2 mph N/A Rain Light Rain
5:58 AM 55.8 °F - 55.4 °F 99% 29.94 in 10.0 mi SSE 12.7 mph - 0.00 in Rain Light Rain
5:59 AM 55.4 °F - 55.4 °F 100% 29.93 in 10.0 mi SSE 12.7 mph - N/A   Overcast
6:12 AM 55.4 °F - 55.4 °F 100% 29.92 in 10.0 mi SSE 11.5 mph 23.0 mph N/A Rain Light Rain
6:21 AM 57.2 °F - 55.4 °F 94% 29.91 in 10.0 mi SSE 13.8 mph - N/A   Overcast
6:45 AM 57.2 °F - 57.2 °F 100% 29.90 in 10.0 mi South 10.4 mph - N/A   Overcast
6:58 AM 57.9 °F - 57.6 °F 99% 29.91 in 10.0 mi South 15.0 mph 24.2 mph 0.00 in   Overcast
7:10 AM 59.0 °F - 59.0 °F 100% 29.90 in 10.0 mi South 15.0 mph 26.5 mph N/A   Overcast
7:37 AM 59.0 °F - 59.0 °F 100% 29.87 in 10.0 mi South 18.4 mph 27.6 mph N/A   Overcast
7:55 AM 59.0 °F - 59.0 °F 100% 29.87 in 10.0 mi South 16.1 mph 25.3 mph N/A   Overcast
7:58 AM 59.4 °F - 59.2 °F 99% 29.87 in 10.0 mi South 13.8 mph 24.2 mph N/A   Overcast
8:07 AM 59.0 °F - 59.0 °F 100% 29.86 in 10.0 mi South 12.7 mph 21.9 mph N/A   Overcast
8:31 AM 59.0 °F - 59.0 °F 100% 29.85 in 10.0 mi South 13.8 mph - N/A   Overcast
8:36 AM 59.0 °F - 59.0 °F 100% 29.85 in 10.0 mi South 15.0 mph - N/A Rain Light Rain
8:58 AM 60.1 °F - 59.7 °F 99% 29.85 in 5.0 mi South 16.1 mph - 0.01 in Rain Rain
9:16 AM 60.8 °F - 60.8 °F 100% 29.84 in 10.0 mi South 15.0 mph - N/A Rain Light Rain
9:36 AM 60.8 °F - 60.8 °F 100% 29.82 in 10.0 mi SSE 17.3 mph 33.4 mph N/A   Overcast
9:39 AM 60.8 °F - 60.8 °F 100% 29.82 in 10.0 mi SSE 16.1 mph 33.4 mph N/A   Light Drizzle
9:42 AM 60.8 °F - 60.8 °F 100% 29.81 in 10.0 mi SSE 15.0 mph 24.2 mph N/A Rain Light Rain
9:45 AM 60.8 °F - 60.8 °F 100% 29.80 in 10.0 mi SSE 17.3 mph 21.9 mph N/A Rain Light Rain
9:52 AM 60.8 °F - 60.8 °F 100% 29.80 in 10.0 mi SSE 16.1 mph 26.5 mph N/A   Overcast
9:58 AM 60.8 °F - 60.8 °F 100% 29.81 in 10.0 mi South 17.3 mph 26.5 mph 0.03 in   Overcast
10:46 AM 60.8 °F - 59.0 °F 94% 29.76 in 10.0 mi SSE 17.3 mph 27.6 mph N/A   Overcast
10:58 AM 60.1 °F - 59.7 °F 99% 29.76 in 10.0 mi South 15.0 mph 27.6 mph N/A   Overcast
11:01 AM 60.8 °F - 59.0 °F 94% 29.75 in 10.0 mi SSE 11.5 mph 25.3 mph N/A   Overcast
11:10 AM 59.0 °F - 59.0 °F 100% 29.73 in 8.0 mi SSE 17.3 mph 23.0 mph N/A   Overcast
11:22 AM 59.0 °F - 59.0 °F 100% 29.70 in 8.0 mi SSE 17.3 mph 23.0 mph N/A   Overcast
11:25 AM 59.0 °F - 59.0 °F 100% 29.71 in 6.0 mi SSE 11.5 mph 23.0 mph N/A Rain Light Rain
11:34 AM 59.0 °F - 59.0 °F 100% 29.70 in 5.0 mi South 11.5 mph 21.9 mph N/A Rain Light Rain
11:36 AM 59.0 °F - 59.0 °F 100% 29.70 in 5.0 mi South 15.0 mph 21.9 mph N/A   Overcast
11:42 AM 59.0 °F - 59.0 °F 100% 29.69 in 8.0 mi South 11.5 mph 20.7 mph N/A   Overcast
11:48 AM 59.0 °F - 59.0 °F 100% 29.69 in 10.0 mi SSE 15.0 mph 20.7 mph N/A   Overcast
11:58 AM 59.7 °F - 59.4 °F 99% 29.68 in 10.0 mi South 15.0 mph 20.7 mph 0.00 in   Overcast
12:10 PM 59.0 °F - 59.0 °F 100% 29.65 in 10.0 mi South 12.7 mph 21.9 mph N/A Rain Light Rain
12:38 PM 60.8 °F - 60.8 °F 100% 29.61 in 10.0 mi South 13.8 mph - N/A   Overcast
12:53 PM 60.8 °F - 60.8 °F 100% 29.60 in 7.0 mi South 12.7 mph - N/A   Overcast
12:58 PM 60.6 °F - 60.3 °F 99% 29.61 in 10.0 mi South 15.0 mph 20.7 mph 0.01 in   Overcast
1:31 PM 60.8 °F - 60.8 °F 100% 29.55 in 10.0 mi South 11.5 mph - N/A   Overcast
1:52 PM 60.8 °F - 60.8 °F 100% 29.54 in 10.0 mi South 13.8 mph - N/A   Overcast
1:58 PM 61.7 °F - 61.7 °F 100% 29.54 in 10.0 mi South 16.1 mph 25.3 mph N/A   Overcast
2:13 PM 62.6 °F - 62.6 °F 100% 29.51 in 9.0 mi South 15.0 mph 24.2 mph N/A Rain Light Rain
2:16 PM 62.6 °F - 62.6 °F 100% 29.52 in 10.0 mi South 16.1 mph 21.9 mph N/A Rain Light Rain
2:22 PM 62.6 °F - 62.6 °F 100% 29.52 in 10.0 mi South 17.3 mph 23.0 mph N/A   Overcast
2:28 PM 62.6 °F - 62.6 °F 100% 29.51 in 10.0 mi South 16.1 mph 23.0 mph N/A Rain Light Rain
2:56 PM 62.6 °F - 62.6 °F 100% 29.49 in 10.0 mi South 15.0 mph 23.0 mph N/A   Overcast
2:58 PM 62.6 °F - 62.6 °F 100% 29.50 in 10.0 mi South 13.8 mph 23.0 mph 0.01 in   Overcast
2:59 PM 62.6 °F - 62.6 °F 100% 29.49 in 10.0 mi South 13.8 mph 23.0 mph N/A Rain Light Rain
3:05 PM 62.6 °F - 62.6 °F 100% 29.48 in 10.0 mi South 12.7 mph - N/A Rain Light Rain
3:20 PM 62.6 °F - 62.6 °F 100% 29.47 in 10.0 mi South 15.0 mph - N/A Rain Light Rain
3:32 PM 62.6 °F - 62.6 °F 100% 29.47 in 10.0 mi South 20.7 mph 26.5 mph N/A   Overcast
3:45 PM 62.6 °F - 62.6 °F 100% 29.46 in 10.0 mi South 18.4 mph 27.6 mph N/A Rain Light Rain
3:54 PM 62.6 °F - 62.6 °F 100% 29.46 in 10.0 mi South 16.1 mph 24.2 mph N/A Rain Light Rain
3:55 PM 62.6 °F - 62.6 °F 100% 29.46 in 10.0 mi South 16.1 mph 24.2 mph N/A   Overcast
3:58 PM 62.6 °F - 62.6 °F 100% 29.47 in 10.0 mi South 16.1 mph - 0.01 in   Overcast
3:59 PM 62.6 °F - 62.6 °F 100% 29.46 in 10.0 mi South 16.1 mph - N/A   Overcast
4:05 PM 62.6 °F - 62.6 °F 100% 29.46 in 10.0 mi South 15.0 mph - N/A   Overcast
4:10 PM 62.6 °F - 62.6 °F 100% 29.46 in 10.0 mi SSW 16.1 mph - N/A   Overcast
4:28 PM 62.6 °F - 62.6 °F 100% 29.44 in 10.0 mi SSE 9.2 mph - N/A   Overcast
4:31 PM 62.6 °F - 62.6 °F 100% 29.43 in 10.0 mi SSE 8.1 mph - N/A   Overcast
4:33 PM 62.6 °F - 62.6 °F 100% 29.43 in 10.0 mi SSE 8.1 mph - N/A Rain Light Rain
4:36 PM 62.6 °F - 60.8 °F 94% 29.45 in 9.0 mi South 8.1 mph - N/A Rain Light Rain
4:42 PM 60.8 °F - 60.8 °F 100% 29.48 in 2.0 mi West 10.4 mph 21.9 mph N/A Rain Heavy Rain
4:45 PM 60.8 °F - 60.8 °F 100% 29.48 in 1.2 mi West 12.7 mph 21.9 mph N/A Rain Heavy Rain
4:48 PM 59.0 °F - 59.0 °F 100% 29.48 in 1.0 mi West 9.2 mph 21.9 mph N/A Rain Heavy Rain
4:54 PM 59.0 °F - 59.0 °F 100% 29.46 in 1.2 mi WNW 13.8 mph - N/A Rain Heavy Rain
4:57 PM 57.2 °F - 57.2 °F 100% 29.47 in 1.5 mi WNW 12.7 mph - N/A Rain Heavy Rain
4:58 PM 57.2 °F - 57.2 °F 100% 29.48 in 1.5 mi West 12.7 mph - 0.35 in Rain Heavy Rain
4:59 PM 57.2 °F - 57.2 °F 100% 29.50 in 2.0 mi WSW 11.5 mph - N/A Rain Heavy Rain
5:01 PM 57.2 °F - 57.2 °F 100% 29.52 in 2.0 mi WSW 10.4 mph - N/A Rain , Thunderstorm Heavy Thunderstorms and Rain
5:04 PM 57.2 °F - 57.2 °F 100% 29.51 in 1.5 mi SW 8.1 mph - N/A Rain , Thunderstorm Heavy Thunderstorms and Rain
5:07 PM 57.2 °F - 57.2 °F 100% 29.51 in 1.0 mi WSW 8.1 mph - N/A Rain , Thunderstorm Heavy Thunderstorms and Rain
5:10 PM 57.2 °F - 57.2 °F 100% 29.51 in 1.0 mi SW 12.7 mph - N/A Rain , Thunderstorm Heavy Thunderstorms and Rain
5:13 PM 57.2 °F - 57.2 °F 100% 29.50 in 1.5 mi WSW 10.4 mph - N/A Rain , Thunderstorm Thunderstorms and Rain
5:16 PM 57.2 °F - 57.2 °F 100% 29.50 in 3.0 mi WSW 11.5 mph - N/A Rain , Thunderstorm Thunderstorms and Rain
5:19 PM 57.2 °F - 57.2 °F 100% 29.49 in 5.0 mi WSW 10.4 mph - N/A Rain , Thunderstorm Thunderstorms and Rain
5:22 PM 57.2 °F - 57.2 °F 100% 29.49 in 6.0 mi West 8.1 mph - N/A Rain Heavy Rain
5:28 PM 57.2 °F - 57.2 °F 100% 29.48 in 5.0 mi West 8.1 mph - N/A Rain Rain
5:34 PM 57.2 °F - 57.2 °F 100% 29.49 in 6.0 mi WSW 10.4 mph - N/A Rain Rain
5:37 PM 57.2 °F - 57.2 °F 100% 29.50 in 7.0 mi SW 10.4 mph - N/A Rain Light Rain
5:43 PM 57.2 °F - 57.2 °F 100% 29.49 in 9.0 mi SW 10.4 mph - N/A Rain Light Rain
5:58 PM 56.7 °F - 56.3 °F 99% 29.48 in 8.0 mi WSW 9.2 mph - 0.29 in Rain Light Rain
6:01 PM 57.2 °F - 55.4 °F 94% 29.48 in 10.0 mi SW 10.4 mph - N/A Rain Light Rain
6:10 PM 55.4 °F - 55.4 °F 100% 29.48 in 10.0 mi SW 9.2 mph - N/A Rain Light Rain
6:44 PM 55.4 °F - 55.4 °F 100% 29.44 in 10.0 mi South 5.8 mph - N/A   Mostly Cloudy
6:58 PM 55.2 °F - 54.9 °F 99% 29.44 in 10.0 mi South 6.9 mph - 0.03 in   Mostly Cloudy
7:05 PM 55.4 °F - 55.4 °F 100% 29.42 in 10.0 mi South 6.9 mph - N/A Rain Light Rain
7:15 PM 55.4 °F - 55.4 °F 100% 29.41 in 10.0 mi SSE 5.8 mph - N/A   Mostly Cloudy
7:58 PM 54.9 °F - 54.5 °F 99% 29.41 in 10.0 mi South 9.2 mph - 0.00 in   Mostly Cloudy
8:58 PM 54.9 °F - 54.5 °F 99% 29.43 in 10.0 mi SW 9.2 mph - N/A   Scattered Clouds
9:00 PM 55.4 °F - 55.4 °F 100% 29.43 in 10.0 mi WSW 12.7 mph - N/A   Scattered Clouds
9:58 PM 54.3 °F - 54.0 °F 99% 29.46 in 10.0 mi SSW 8.1 mph - N/A   Mostly Cloudy
9:59 PM 53.6 °F - 53.6 °F 100% 29.45 in 10.0 mi South 8.1 mph - N/A   Mostly Cloudy
10:05 PM 53.6 °F - 53.6 °F 100% 29.45 in 10.0 mi South 8.1 mph - N/A   Mostly Cloudy
10:08 PM 53.6 °F - 53.6 °F 100% 29.45 in 10.0 mi South 9.2 mph - N/A   Overcast
10:11 PM 53.6 °F - 53.6 °F 100% 29.45 in 10.0 mi South 10.4 mph - N/A   Overcast
10:17 PM 53.6 °F - 53.6 °F 100% 29.44 in 10.0 mi South 10.4 mph - N/A   Overcast
10:23 PM 53.6 °F - 53.6 °F 100% 29.44 in 10.0 mi SSW 12.7 mph - N/A   Overcast
10:32 PM 53.6 °F - 53.6 °F 100% 29.44 in 10.0 mi SSW 11.5 mph - N/A   Overcast
10:41 PM 53.6 °F - 53.6 °F 100% 29.45 in 10.0 mi SSW 12.7 mph - N/A   Overcast
10:58 PM 54.5 °F - 54.1 °F 99% 29.44 in 10.0 mi SW 8.1 mph - N/A   Overcast
11:12 PM 53.6 °F - 53.6 °F 100% 29.43 in 10.0 mi SW 9.2 mph - N/A   Overcast
11:24 PM 53.6 °F - 53.6 °F 100% 29.42 in 10.0 mi SSW 10.4 mph - N/A   Overcast
11:26 PM 53.6 °F - 53.6 °F 100% 29.42 in 10.0 mi SW 10.4 mph - N/A   Overcast
11:29 PM 53.6 °F - 53.6 °F 100% 29.43 in 10.0 mi SSW 9.2 mph - N/A   Overcast
11:30 PM 53.6 °F - 53.6 °F 100% 29.43 in 10.0 mi SSW 9.2 mph - N/A   Overcast
11:33 PM 53.6 °F - 53.6 °F 100% 29.43 in 10.0 mi SW 9.2 mph - N/A   Overcast
11:34 PM 53.6 °F - 53.6 °F 100% 29.43 in 10.0 mi SW 9.2 mph - N/A   Overcast
11:37 PM 53.6 °F - 53.6 °F 100% 29.43 in 10.0 mi SW 10.4 mph - N/A   Overcast
11:40 PM 53.6 °F - 53.6 °F 100% 29.43 in 10.0 mi SW 10.4 mph - N/A Rain Light Rain
11:49 PM 53.6 °F - 53.6 °F 100% 29.43 in 10.0 mi SW 9.2 mph - N/A Rain Light Rain
11:58 PM 53.6 °F - 53.6 °F 100% 29.44 in 10.0 mi SW 8.1 mph - 0.00 in Rain Light Rain